Wind_Speed
13 13 14 13 13 13 12 11 11 12 12 13 11 9 7 6 8 12 14 15 14 13 12 13 16 19 21 21 20 20 21 23 23 24 24 25 26 26 27 28 30 31 32 32 33 34 35 35 35 35 37 40 44 45 44 44 43 42 43 45 46 48 49 50 51 54 56 55 52 48 43 37 34 33 33 33 36 39 41 42 42 42 41 40 39
10 11 11 11 11 11 11 10 10 10 11 11 10 9 7 6 8 10 12 13 13 12 11 12 15 19 20 21 21 21 22 23 24 25 26 26 27 27 28 29 30 32 33 33 34 35 36 36 37 37 38 39 43 46 46 45 44 44 45 46 48 50 51 52 53 55 55 56 55 54 51 46 38 35 34 34 35 37 40 42 43 43 43 42 41
7 8 9 10 10 10 10 10 9 8 9 10 9 8 8 8 8 9 11 12 12 12 12 13 16 19 21 22 22 23 24 25 25 26 27 28 28 29 29 30 30 32 34 34 35 36 37 38 38 39 39 40 42 45 46 46 46 45 45 46 48 51 53 53 55 56 56 56 56 57 59 56 49 41 36 35 35 37 38 41 43 44 44 44 43
6 7 8 9 10 10 10 9 8 7 8 9 9 9 9 9 10 10 11 12 13 14 14 15 18 20 22 23 23 24 26 27 27 28 28 29 30 30 30 30 31 32 33 35 35 35 37 38 39 40 41 41 43 45 46 47 48 47 46 46 48 51 53 54 55 57 57 57 58 60 61 61 57 50 43 37 35 36 38 40 43 45 46 46 45
7 8 9 9 10 10 10 9 8 8 8 8 9 9 10 10 11 11 12 13 14 15 16 17 19 21 22 23 24 26 28 29 29 29 30 30 31 31 31 31 31 31 32 34 34 35 36 38 40 41 42 43 44 45 46 48 50 50 47 46 48 52 53 53 55 57 57 58 60 62 64 65 63 58 50 44 39 36 37 39 42 44 47 48 47
8 9 9 10 10 10 9 9 9 9 9 8 9 10 11 12 12 13 14 15 16 17 18 19 20 21 23 24 25 27 29 30 31 31 32 32 32 32 32 32 32 31 31 32 33 34 35 38 40 41 42 43 44 46 47 49 51 52 49 46 47 51 53 53 55 57 57 58 60 63 66 68 68 64 57 49 43 39 37 38 40 43 46 48 50
10 11 11 11 11 10 9 10 10 10 10 10 10 11 12 13 14 15 16 17 17 18 19 21 22 23 24 25 27 29 31 33 33 34 34 34 35 34 34 34 34 33 31 31 33 34 35 37 40 42 43 44 46 48 49 50 52 53 51 46 46 51 52 52 55 57 56 57 59 62 65 68 70 69 65 57 48 41 37 37 38 42 45 47 50
12 12 12 11 11 11 10 11 12 12 12 12 13 13 14 15 16 17 18 18 19 20 21 22 24 26 27 28 30 31 33 34 35 36 36 36 36 37 36 36 35 34 33 32 33 35 36 38 41 44 46 47 48 50 51 51 52 53 52 47 47 51 52 52 55 56 56 56 58 60 63 67 70 70 69 65 58 47 38 35 36 39 43 47 49
12 13 12 12 13 12 12 12 13 13 14 14 15 16 16 17 18 19 20 21 22 22 23 24 26 28 30 31 32 33 34 35 36 37 38 38 38 38 38 37 37 36 35 33 34 36 38 40 43 46 49 50 49 51 52 51 50 53 51 46 47 51 51 52 54 55 55 55 57 59 62 66 69 71 70 68 65 57 45 36 33 34 39 45 50
12 12 13 14 14 14 14 14 15 15 16 17 18 18 18 19 20 21 23 24 25 25 26 27 28 30 32 33 34 35 36 37 38 39 39 39 39 39 39 38 37 37 36 35 36 38 40 43 46 48 51 52 51 50 52 51 48 51 50 46 47 50 51 53 54 54 54 55 56 59 62 66 69 71 72 70 67 62 54 44 35 32 33 39 46
14 14 14 15 16 16 16 17 16 17 18 19 20 21 21 22 23 24 25 27 28 29 29 29 30 31 33 34 35 36 37 39 40 40 41 41 40 39 39 38 37 37 36 36 37 39 42 45 48 50 52 53 52 50 52 51 48 48 49 46 46 49 51 53 54 54 54 55 56 58 61 65 68 71 72 71 69 64 57 50 43 35 32 33 40
17 17 16 17 18 19 19 20 20 19 20 21 22 23 24 26 27 27 28 29 30 31 32 32 32 33 34 34 35 35 37 39 40 41 42 42 41 40 39 38 37 37 37 37 39 41 44 47 50 52 53 54 53 51 52 53 48 46 48 47 46 48 50 52 54 55 55 56 57 59 61 65 68 71 73 73 71 66 58 51 47 41 36 33 34
19 20 20 21 21 22 23 23 24 24 24 25 26 26 27 29 30 31 31 32 33 34 34 35 35 35 35 36 36 36 36 38 40 41 42 41 40 39 38 38 37 37 38 38 40 43 46 49 51 54 55 55 55 52 52 54 50 45 46 47 46 47 49 51 54 56 57 57 58 60 62 66 69 71 73 74 73 70 63 54 47 44 40 37 34
22 23 25 25 25 26 27 27 28 28 28 29 29 30 31 32 33 33 34 34 35 36 36 36 36 36 37 38 38 38 38 39 40 40 41 41 41 40 39 39 39 39 39 40 42 45 48 51 53 56 57 57 56 52 52 54 52 47 45 48 47 46 49 52 55 58 60 60 61 62 64 67 70 72 73 75 75 72 68 59 50 45 42 40 38
25 26 28 30 30 30 30 31 31 31 31 32 32 33 34 34 35 36 36 36 37 37 37 37 37 38 38 39 40 41 41 41 41 41 41 41 41 41 41 41 41 41 41 43 45 47 50 54 56 58 59 58 55 52 51 54 54 49 46 47 48 46 48 52 56 59 61 63 64 64 66 68 70 73 74 76 77 75 71 65 55 48 44 42 41
28 29 31 32 33 33 33 34 34 34 34 34 35 36 36 37 37 37 38 37 38 38 39 39 39 40 40 41 42 43 44 44 44 44 43 42 41 41 41 42 43 44 45 46 48 51 54 57 59 60 59 58 55 51 52 54 55 50 47 48 49 47 48 53 56 59 62 65 67 67 69 70 71 74 76 77 79 78 75 69 61 52 46 43 44
32 33 33 34 35 35 36 36 36 36 36 36 37 37 38 38 38 38 39 39 39 40 40 41 42 42 42 43 45 46 46 47 47 47 46 45 44 43 43 45 46 47 48 50 51 54 57 58 59 60 59 57 53 51 52 55 55 50 46 48 50 49 50 54 57 61 63 66 69 72 72 72 73 76 78 79 80 80 79 74 67 57 49 44 44
35 36 35 35 36 37 38 38 39 38 38 38 39 39 40 40 39 39 40 40 41 41 42 43 43 44 45 46 47 48 49 49 50 49 49 48 47 46 46 47 48 49 50 51 53 55 56 58 59 59 58 56 54 52 53 55 53 49 47 49 50 50 52 56 60 62 65 68 72 75 76 75 76 79 80 81 80 80 81 78 73 65 54 46 43
39 39 38 38 37 38 39 40 40 40 40 40 41 41 41 41 41 41 42 42 43 43 44 44 45 46 46 47 47 48 49 50 51 51 50 50 49 48 48 48 50 51 51 53 54 56 57 58 59 58 57 56 55 54 55 55 52 49 49 50 51 53 56 59 62 64 66 69 73 76 77 78 78 81 82 82 82 81 81 81 77 71 61 49 43
41 41 41 40 40 40 41 41 42 42 42 42 42 43 43 43 44 44 44 45 45 45 46 46 47 47 47 47 47 48 48 49 51 52 51 51 50 50 51 52 52 53 53 55 57 58 59 58 57 56 56 56 55 55 56 56 53 51 51 52 54 56 59 62 66 68 69 72 75 77 79 79 80 82 84 84 84 83 83 83 79 74 66 53 45
44 44 43 43 43 43 43 44 43 43 43 44 45 45 46 46 46 46 47 47 47 48 48 48 48 48 47 48 48 48 48 49 50 51 52 53 53 54 55 56 55 54 54 57 59 60 59 56 54 54 56 56 56 57 57 57 55 53 53 55 57 59 62 66 69 71 72 74 77 79 80 81 82 85 86 86 85 85 85 85 82 77 70 58 47
46 46 45 45 46 46 46 46 45 45 45 46 47 47 48 48 48 48 48 48 48 49 49 49 49 49 49 48 48 49 50 50 51 52 54 55 56 57 59 59 58 55 56 58 59 57 56 54 53 55 58 59 58 58 59 59 56 55 56 58 60 62 65 69 72 74 75 76 78 81 82 84 85 88 89 88 87 87 87 86 85 80 73 63 50
48 47 47 48 48 49 49 48 47 47 48 48 49 49 49 50 50 50 49 49 49 49 50 50 49 49 50 49 49 51 52 53 53 54 55 57 59 60 61 61 58 56 56 56 54 54 55 55 56 58 61 63 61 59 59 58 56 56 58 61 63 66 68 71 74 76 77 78 81 83 84 86 89 91 92 90 89 90 89 89 87 81 76 67 55
49 48 49 49 50 51 50 50 49 49 49 50 50 51 51 51 50 50 50 49 49 49 49 49 50 50 50 50 51 52 55 56 56 56 58 59 62 63 63 61 57 55 55 52 50 54 57 57 59 61 63 64 63 61 59 57 56 58 61 63 66 68 70 74 76 78 79 80 82 84 86 88 91 93 93 92 92 93 93 91 88 83 77 70 60
50 49 49 51 52 52 52 51 50 50 50 51 52 52 52 52 51 51 51 50 50 50 50 50 51 51 51 52 52 54 58 59 58 57 59 62 65 64 60 57 54 54 53 49 51 59 61 60 61 62 64 66 64 61 59 57 58 61 63 65 68 71 74 78 79 79 80 82 83 85 88 90 92 94 94 94 95 96 96 94 90 84 79 72 63
51 50 50 52 53 52 52 52 51 51 52 52 53 53 53 52 52 51 51 51 51 51 52 53 53 53 53 54 54 56 60 60 58 58 61 65 66 62 58 53 51 52 52 50 56 64 65 63 62 61 64 66 63 60 59 60 60 62 64 67 71 75 79 81 80 79 81 82 84 86 89 92 94 95 95 96 97 99 98 96 92 86 80 74 67
52 52 51 52 53 53 54 54 53 53 53 54 54 54 54 54 53 52 53 53 53 53 55 56 55 55 55 55 57 58 57 55 55 58 62 63 59 57 57 55 51 52 54 56 60 65 66 64 61 59 62 63 60 58 59 59 61 63 67 72 77 80 81 80 79 80 82 83 85 88 91 94 95 96 96 98 100 101 100 98 93 86 81 77 70
54 53 52 53 54 55 56 56 55 55 55 56 56 56 56 55 54 55 55 56 56 56 57 58 57 56 56 57 59 57 52 51 56 61 60 56 53 55 58 58 57 57 58 60 61 62 63 62 57 56 57 57 56 57 59 62 65 70 74 78 79 79 79 79 80 82 84 86 88 91 94 96 96 97 99 101 103 103 101 99 93 86 83 80 73
54 55 54 55 56 57 58 59 58 57 57 58 59 58 58 57 57 57 58 59 59 59 60 60 59 59 58 58 56 52 50 54 59 61 57 54 56 60 61 61 60 59 59 61 62 62 62 59 56 54 55 56 58 61 66 69 72 75 76 77 77 78 80 83 85 85 86 89 92 94 96 97 98 100 102 104 105 104 102 98 91 87 86 84 78
55 55 55 57 59 60 61 61 60 59 59 59 60 60 60 60 60 60 60 61 62 62 62 62 62 61 58 54 51 48 52 56 57 58 58 59 62 65 66 64 61 60 61 62 64 66 64 61 60 57 56 60 64 67 70 72 74 75 76 78 81 83 85 86 87 87 89 92 94 95 97 98 100 103 105 106 106 105 102 95 90 89 89 88 83
55 55 56 58 60 62 62 62 62 62 62 61 62 62 62 63 63 62 62 63 64 64 64 64 63 61 57 53 49 49 52 53 52 55 57 57 59 62 64 64 62 61 62 63 65 67 65 64 63 59 59 63 66 68 71 73 75 77 79 81 84 85 86 87 88 90 92 93 94 96 98 101 104 106 107 107 107 106 100 93 90 91 92 91 87
56 57 58 60 61 62 63 63 64 64 64 64 64 64 64 65 65 65 64 64 64 63 63 64 63 61 58 54 50 49 49 48 48 49 50 50 53 57 61 63 62 61 61 62 64 64 63 63 61 59 62 65 68 70 73 75 78 80 81 81 83 85 88 90 92 92 93 94 95 97 100 104 107 108 107 107 107 105 99 94 93 93 94 94 90
58 59 61 62 63 63 64 65 66 67 67 67 66 65 66 66 66 64 63 63 63 62 61 61 60 59 57 54 50 48 45 42 41 44 49 52 54 57 60 62 61 61 61 62 63 62 61 61 62 62 65 68 71 74 76 79 82 82 80 82 87 91 93 94 93 93 93 95 97 100 103 107 109 108 107 107 106 103 98 96 96 96 97 96 92
61 62 64 65 64 65 66 67 68 68 68 67 67 66 66 66 65 63 61 61 61 61 60 59 59 59 57 54 50 47 42 38 38 44 51 54 56 57 58 58 59 60 60 61 62 63 63 66 67 67 67 69 73 77 80 83 83 81 82 87 92 96 96 95 94 94 94 96 99 103 106 109 109 109 108 107 104 100 98 99 99 99 99 98 94
64 64 66 66 66 66 67 68 68 68 68 67 66 65 65 65 64 62 61 60 60 60 60 60 60 60 58 55 51 46 40 35 38 46 50 52 56 58 57 57 58 59 58 59 62 66 69 71 70 69 69 72 76 81 84 85 84 84 87 91 94 96 97 96 96 95 96 99 102 105 108 110 110 109 107 104 100 98 99 100 101 101 101 100 96
65 66 66 66 66 67 67 67 67 67 67 66 65 64 64 65 64 62 62 62 62 62 61 61 62 61 60 57 53 49 43 38 40 47 51 52 56 59 58 56 57 58 58 60 63 66 71 73 72 71 74 79 83 86 88 88 87 88 90 92 94 95 95 95 95 96 99 101 104 107 109 110 109 108 106 102 99 100 102 103 103 103 102 101 97
66 66 66 66 66 66 66 66 66 66 65 64 63 64 64 64 64 63 64 64 64 64 64 64 64 62 61 59 55 52 48 43 42 46 51 51 52 54 53 53 55 58 61 63 64 67 71 74 76 78 82 85 88 89 90 90 89 89 90 92 93 93 93 94 95 98 101 103 106 109 109 109 108 106 103 100 100 103 105 105 105 104 102 101 97
66 65 65 65 66 65 65 65 65 65 64 63 63 65 66 65 65 66 67 67 66 65 65 65 65 64 62 61 58 52 48 44 41 41 45 46 46 47 49 50 53 59 62 63 64 67 71 75 78 82 85 88 89 89 89 90 90 89 89 89 90 91 93 94 96 99 102 105 108 109 108 107 107 105 102 102 104 106 107 107 107 105 103 101 97
65 64 64 65 66 65 64 64 65 64 64 64 65 67 67 67 68 69 70 69 68 67 67 67 66 65 63 62 58 51 46 42 38 36 37 38 39 43 48 51 54 59 61 62 63 67 71 76 80 83 84 85 85 85 85 85 84 83 84 86 89 92 94 96 99 102 104 107 109 108 107 107 106 104 103 104 106 109 110 110 108 106 103 100 96
64 63 64 66 66 65 65 65 66 65 66 67 68 69 69 69 70 71 71 71 70 69 69 69 68 66 65 62 57 51 45 42 38 36 35 35 36 40 46 52 58 62 63 65 69 72 75 78 79 79 80 80 79 78 78 78 79 81 85 88 91 93 96 100 103 105 107 110 109 108 107 107 105 103 104 107 110 112 112 111 109 106 103 99 95
64 64 66 67 67 67 67 68 68 68 69 70 70 70 70 71 72 73 73 73 72 71 70 70 68 67 65 61 56 51 47 42 40 39 39 39 42 46 50 54 60 65 68 71 73 75 77 78 76 76 78 79 79 79 80 82 85 88 91 92 93 96 101 104 106 108 110 110 109 108 107 105 104 105 108 112 114 114 114 112 109 106 101 97 93
66 67 68 69 70 70 71 71 71 71 71 71 72 72 72 72 73 74 74 74 73 72 71 70 68 66 64 60 56 52 49 46 45 44 44 46 51 55 57 59 63 68 71 74 75 77 79 79 79 80 82 83 84 86 88 90 92 94 95 96 98 102 105 107 109 111 111 110 108 107 106 105 107 110 113 115 116 116 115 112 109 105 100 95 90
68 70 70 71 72 73 73 73 73 73 73 73 74 74 74 74 74 75 75 74 74 72 71 70 68 66 63 60 57 53 48 46 48 50 50 52 55 59 61 63 66 70 72 75 77 78 79 80 82 85 88 89 90 91 92 93 94 96 98 101 103 106 108 109 112 113 111 108 107 106 107 109 112 114 116 117 117 117 115 112 109 104 98 93 87
72 73 74 74 74 73 73 73 73 74 74 74 75 75 75 75 75 74 74 74 74 72 71 70 67 64 62 61 60 56 50 46 48 53 57 58 59 61 64 67 69 72 73 75 78 79 79 80 82 86 91 93 94 94 94 94 96 99 101 103 105 107 109 111 113 111 107 105 106 109 111 114 115 116 117 118 118 117 115 112 108 103 97 91 83
74 75 75 75 75 74 73 73 74 75 76 75 76 76 75 74 74 73 74 75 73 71 69 67 65 64 63 63 63 60 56 51 49 52 57 61 62 63 65 69 72 74 74 75 76 77 78 81 83 86 90 92 93 94 96 97 98 100 101 104 106 108 110 112 111 108 107 108 111 114 115 116 117 117 118 117 117 115 114 111 106 101 94 86 77
70 72 73 74 74 75 75 75 76 76 75 75 75 75 74 74 74 74 73 71 70 68 68 68 67 66 66 66 65 63 61 58 54 52 54 58 61 63 64 66 69 73 75 74 71 70 72 75 77 80 84 88 91 94 96 97 98 100 103 106 108 110 112 112 110 110 111 112 114 114 114 115 115 116 115 115 115 114 112 108 103 96 88 79 71
73 74 74 75 75 76 75 75 74 74 73 73 73 73 73 73 72 70 68 67 68 70 71 71 70 69 69 69 68 66 64 62 59 56 53 54 58 59 59 60 63 68 72 75 75 75 75 76 77 80 84 88 91 93 95 97 100 104 107 110 111 111 111 110 109 110 110 110 111 111 112 112 112 113 114 114 113 111 109 104 98 89 80 72 65
75 74 73 73 74 74 72 71 71 72 72 71 69 68 68 69 68 68 69 70 72 72 72 70 70 71 71 71 69 67 65 63 62 60 58 57 58 59 58 58 59 62 67 71 75 78 80 81 83 85 88 90 92 94 97 101 105 109 112 112 111 109 107 106 106 106 106 107 108 109 109 110 111 112 112 111 110 107 105 99 91 82 73 66 60
75 73 71 70 70 70 70 70 71 70 68 65 62 62 65 67 68 70 72 73 74 74 73 72 72 71 70 68 66 64 63 62 62 63 64 65 67 69 68 65 62 62 64 67 71 74 78 81 84 86 89 92 95 98 102 106 108 110 109 107 104 102 102 102 103 103 104 106 107 108 109 110 110 110 109 107 105 102 98 92 83 75 68 61 55
75 73 72 71 70 71 72 72 71 67 64 64 65 67 69 71 72 73 74 74 75 75 74 72 70 68 66 64 62 61 62 63 65 68 71 73 75 76 76 74 71 67 67 69 72 74 77 81 84 88 92 95 99 103 105 105 104 102 100 98 97 98 100 101 102 103 105 106 107 108 108 108 107 105 104 102 100 96 90 83 76 70 63 56 51
75 75 75 74 74 75 76 74 70 67 66 68 69 71 72 73 73 73 73 74 74 73 71 69 67 66 65 64 63 63 64 66 69 71 74 75 76 77 77 77 77 76 76 77 78 80 83 87 91 94 97 101 103 103 101 98 96 96 95 95 96 97 99 100 101 102 103 104 104 104 103 102 102 101 99 97 94 88 82 77 71 64 57 52 47
Wind_Direction
68 68 67 65 63 62 58 53 49 48 45 45 47 52 61 51 29 20 17 16 13 7 3 3 4 5 6 7 7 4 1 0 359 357 354 353 352 352 352 353 353 355 356 356 357 358 359 358 356 354 353 356 358 357 356 357 359 359 360 1 4 5 7 7 7 7 7 6 4 360 354 341 321 304 291 279 268 261 257 256 257 258 258 255 252
58 57 57 56 56 55 51 45 41 38 36 35 37 39 39 29 17 11 10 11 8 1 351 346 350 354 357 0 2 0 358 356 354 351 349 348 347 347 347 347 348 349 349 350 351 353 354 355 354 352 349 350 352 354 354 354 355 356 357 358 360 2 3 3 4 5 7 9 9 6 2 355 341 321 302 288 278 268 259 256 255 254 256 256 253
42 40 39 40 41 42 41 37 30 26 23 20 17 15 14 11 7 2 1 3 1 354 346 338 338 340 343 346 350 352 353 352 350 348 345 344 343 342 341 342 343 345 345 345 345 347 349 350 351 350 348 347 349 352 353 352 352 352 353 355 356 358 359 0 1 2 3 5 7 7 4 1 355 342 322 301 285 275 266 258 255 253 252 253 252
11 15 17 19 21 23 25 24 21 16 9 7 1 354 352 352 351 349 348 348 346 343 340 336 333 333 333 333 336 342 345 346 344 343 342 341 340 338 336 336 338 341 343 343 343 344 346 348 348 347 346 345 345 348 350 351 350 348 348 350 352 354 356 357 358 359 360 0 2 3 4 3 1 355 343 324 301 283 273 263 257 254 252 250 250
343 348 353 359 3 5 7 7 6 5 2 357 350 344 341 340 339 337 335 335 334 334 334 333 332 332 332 330 328 330 335 337 338 337 336 336 336 335 332 331 333 335 339 343 344 345 346 347 348 347 345 342 341 342 344 346 346 346 345 345 348 350 352 355 356 357 357 357 358 360 1 1 1 359 353 342 325 302 283 271 261 255 252 250 249
319 327 335 342 346 350 353 355 353 352 353 351 344 339 336 335 333 330 330 332 333 333 332 333 334 333 332 330 328 327 328 330 331 331 331 330 330 330 329 328 328 328 332 337 341 342 344 345 347 347 344 341 339 338 338 340 342 343 343 342 344 347 350 353 354 354 355 355 356 357 358 359 359 357 355 350 340 323 302 283 269 259 253 250 249
306 316 324 330 334 338 340 341 341 340 342 341 339 337 334 332 330 328 329 331 333 334 334 334 334 334 332 330 329 328 328 328 328 327 327 326 325 325 324 323 323 323 324 329 334 336 339 341 342 343 342 341 340 339 337 337 339 341 341 339 340 345 348 351 352 352 353 353 354 355 357 357 357 355 354 351 347 337 320 299 281 267 258 251 248
302 310 317 319 323 325 328 330 331 331 333 333 332 332 331 329 327 326 326 329 331 331 332 332 332 331 330 329 328 328 328 327 327 325 324 323 322 321 320 318 318 318 318 320 324 328 332 335 337 339 339 339 339 340 339 337 338 339 340 338 338 342 347 349 351 351 351 351 351 353 355 356 356 355 353 351 347 342 331 314 295 278 265 256 250
298 302 307 310 313 316 317 321 324 326 326 327 327 326 326 325 323 323 323 324 326 327 328 328 328 328 327 327 327 327 327 326 325 324 322 321 319 317 316 315 313 313 313 314 316 320 325 329 332 335 336 336 336 338 338 335 335 338 338 336 337 341 344 347 349 349 349 349 349 351 353 354 355 355 354 351 347 342 336 324 306 289 275 263 255
288 291 296 300 304 307 308 311 315 318 319 320 320 320 320 320 319 319 319 320 322 323 324 325 325 324 324 325 326 326 325 325 324 323 322 320 318 316 314 312 310 309 309 310 311 315 321 326 329 331 333 333 332 334 335 332 331 336 336 333 335 338 341 344 346 347 348 347 347 349 350 352 353 354 354 352 349 343 336 329 317 299 284 270 260
282 284 288 292 297 298 299 301 305 309 311 312 313 313 314 314 315 315 316 317 318 319 321 322 322 321 322 323 324 324 324 324 323 323 322 321 319 316 313 311 308 307 307 307 309 314 320 323 326 327 328 329 328 328 331 330 327 332 335 331 332 336 338 341 344 345 346 346 346 347 348 349 351 352 353 353 351 345 336 329 323 310 294 277 264
283 284 284 287 290 293 293 296 299 301 304 305 306 307 308 309 310 311 312 314 315 317 319 319 319 319 320 320 321 322 322 323 324 324 325 323 321 318 314 311 308 307 306 306 309 314 318 320 322 324 324 325 324 323 326 327 324 326 332 331 329 332 335 338 341 343 344 344 344 345 345 347 348 350 352 353 352 349 339 328 322 316 305 290 273
282 286 286 286 287 289 291 293 296 298 299 300 302 303 305 306 307 308 310 311 313 315 317 317 318 318 319 319 321 321 322 322 323 324 325 325 323 319 315 312 309 308 307 308 311 313 314 316 317 320 321 321 321 320 322 325 321 320 327 329 327 328 331 335 338 340 342 342 343 343 343 344 345 347 349 352 352 351 345 333 321 316 309 301 289
278 283 286 287 287 288 290 292 294 296 298 299 300 302 303 304 305 306 308 310 312 314 315 316 316 317 317 318 319 320 320 321 321 322 324 324 323 320 317 315 312 311 310 310 310 310 311 312 314 317 319 320 319 318 320 322 320 316 320 326 325 324 327 331 334 337 339 340 340 341 341 342 343 344 347 349 351 352 349 340 327 317 311 304 298
277 282 286 288 289 290 290 291 292 295 297 299 300 301 302 302 303 305 307 309 312 313 313 314 314 315 316 317 318 319 319 319 319 320 322 322 322 320 318 316 315 313 311 309 309 308 309 311 313 316 318 319 318 317 318 320 318 314 314 320 323 321 324 328 331 334 336 337 338 338 339 339 340 342 343 345 348 350 350 346 336 323 314 307 301
280 282 284 287 289 290 290 291 293 294 296 298 299 300 300 301 302 304 306 308 310 311 311 312 313 314 315 316 317 318 318 318 318 318 320 321 321 320 318 317 316 313 310 309 308 308 310 311 313 315 318 319 317 315 317 317 316 313 310 315 320 319 321 325 328 331 333 334 335 335 335 336 338 339 340 342 345 347 349 348 343 331 320 313 305
280 280 281 284 286 288 289 291 292 293 295 296 297 298 298 300 302 303 305 306 307 308 310 311 312 314 314 315 316 317 317 317 317 317 319 319 319 319 318 317 316 313 311 309 308 309 311 312 314 316 318 319 316 313 314 316 314 310 308 312 317 317 318 322 325 328 330 332 332 331 332 334 335 336 337 339 342 345 346 346 344 337 326 317 311
279 279 280 282 284 286 288 290 291 292 293 295 295 297 298 299 301 303 304 304 306 307 309 310 312 313 314 315 316 317 317 317 317 317 318 318 318 318 317 316 315 313 310 309 309 310 313 313 315 317 318 318 315 310 312 314 311 307 306 310 315 316 317 320 322 326 329 330 329 329 330 332 333 334 335 337 340 342 344 344 343 340 330 318 313
279 279 281 283 284 286 288 289 291 292 293 295 297 297 298 299 300 301 302 303 305 307 308 309 311 312 313 314 315 316 316 316 316 317 318 318 318 318 317 316 314 313 312 311 312 312 314 314 315 316 318 318 314 309 311 314 309 305 306 310 314 316 317 319 322 325 327 328 327 328 328 329 330 332 333 335 337 339 341 341 341 339 334 320 309
279 280 281 283 284 285 286 287 289 291 293 295 296 297 298 299 299 300 301 302 304 306 307 309 310 310 311 312 313 314 316 316 316 316 318 318 318 318 317 315 314 314 313 313 313 314 314 315 316 317 318 318 314 309 310 313 308 304 306 309 312 315 317 319 321 324 325 325 325 326 326 326 327 329 330 332 335 336 337 338 338 337 334 324 307
277 279 280 282 283 283 284 286 287 289 291 293 294 295 295 297 297 298 300 301 304 305 307 308 308 309 310 311 312 314 315 316 315 316 317 317 317 316 315 315 314 313 313 314 314 314 316 317 318 320 321 318 313 308 310 311 307 303 305 307 310 313 315 317 318 321 322 323 324 325 325 324 325 327 329 331 333 334 334 335 336 335 333 327 311
275 277 279 281 282 283 284 285 287 288 289 290 292 292 293 294 296 297 299 301 304 305 306 307 307 308 309 311 312 313 314 314 314 315 316 316 315 315 314 314 313 311 312 315 316 316 318 319 320 322 323 320 312 307 309 310 306 303 304 305 308 311 313 314 316 318 320 321 322 323 323 322 323 325 327 329 331 332 332 333 334 334 332 327 315
274 276 279 280 281 282 283 284 286 288 288 289 289 290 291 292 294 296 298 301 303 304 304 304 305 306 308 310 311 312 312 312 313 314 314 314 313 313 313 313 312 311 314 317 319 319 320 320 319 319 321 321 314 307 307 308 305 303 303 304 306 309 311 313 315 317 318 320 321 321 320 320 322 324 326 328 329 329 330 331 332 332 331 327 317
273 276 278 279 280 281 282 284 286 286 287 287 288 289 290 292 293 295 297 300 301 302 302 302 303 305 306 308 310 310 311 312 312 313 314 313 312 311 312 313 311 310 313 316 319 321 320 318 317 317 319 319 314 307 306 306 304 302 302 304 306 308 309 312 314 315 317 318 319 319 319 320 322 323 325 326 327 328 328 329 330 330 330 327 319
273 275 276 278 279 280 282 284 284 285 286 286 287 288 290 292 294 295 297 299 299 299 300 300 301 302 305 308 309 310 311 310 310 312 313 312 311 311 313 313 311 309 311 312 317 320 319 317 317 317 317 318 313 306 303 302 301 302 303 304 306 307 309 311 313 314 315 317 318 318 319 321 322 323 324 325 326 326 327 328 329 329 329 327 321
272 273 274 276 277 279 281 282 283 284 285 286 287 288 290 292 293 294 296 297 297 298 299 300 301 303 306 309 309 310 311 309 308 312 314 311 310 311 312 313 311 309 308 308 312 316 317 317 317 316 315 314 310 304 300 299 299 301 303 304 305 307 309 310 311 313 314 316 317 319 320 321 321 322 322 323 324 325 326 327 327 327 328 327 322
271 272 273 275 277 278 279 280 281 282 284 285 287 288 290 292 293 294 296 297 297 298 299 301 303 304 307 308 308 310 311 308 308 310 308 307 305 304 306 308 306 305 305 306 310 314 315 315 315 313 312 310 305 301 299 298 299 301 303 305 307 308 309 309 310 311 314 316 317 319 319 320 320 320 321 322 323 324 325 325 325 326 328 327 323
269 271 273 275 277 278 278 279 280 282 283 285 287 288 291 292 293 293 295 296 297 298 299 300 301 303 305 305 307 310 307 305 308 307 303 303 304 301 303 305 303 301 302 307 311 313 313 313 312 310 310 307 303 302 302 302 302 303 305 307 308 308 307 308 309 311 313 315 316 318 318 318 319 319 320 321 322 324 324 324 324 326 328 327 324
268 271 273 274 276 277 277 278 280 282 284 285 287 289 291 292 292 293 294 295 296 297 298 299 299 301 302 304 309 311 304 302 309 309 304 304 305 304 306 308 306 302 301 305 309 310 310 311 310 307 306 304 302 303 304 304 304 305 306 307 307 306 306 307 309 310 312 314 316 317 317 317 318 319 320 321 322 323 323 322 323 326 328 328 326
268 270 272 274 274 275 277 278 281 283 284 285 286 288 290 290 291 292 293 294 295 296 296 296 298 299 300 303 308 306 299 300 308 310 307 305 304 305 308 310 309 306 303 304 306 306 307 309 308 304 302 301 302 304 305 305 305 305 305 305 305 305 306 306 308 309 312 314 315 316 316 317 318 319 320 322 322 322 321 321 324 327 329 328 326
268 269 270 271 272 275 277 279 281 282 282 283 285 286 287 288 289 290 291 292 293 293 294 294 296 298 299 300 302 300 298 303 310 311 308 305 303 304 306 308 308 306 304 304 305 305 306 307 305 300 298 299 302 305 305 304 304 304 304 304 304 305 306 307 308 310 312 314 314 315 316 317 318 319 321 321 321 320 320 322 325 328 329 329 327
268 269 270 270 271 274 276 278 279 280 281 282 283 284 285 286 287 288 289 290 291 291 292 294 295 297 298 299 302 302 303 311 317 313 305 300 299 301 302 303 304 304 304 305 306 305 304 304 300 294 294 297 301 303 303 302 301 301 302 303 305 306 308 309 310 312 313 313 315 315 316 316 318 320 320 320 319 319 320 323 326 328 329 329 327
268 269 269 270 272 273 275 276 277 278 279 281 282 283 284 285 286 287 289 289 290 291 292 294 296 297 299 301 303 305 310 318 318 306 298 294 293 295 296 297 299 302 302 304 305 303 301 299 295 291 292 295 298 301 301 300 299 300 301 303 305 307 309 310 311 311 312 313 314 315 316 317 319 319 318 318 318 318 320 323 325 327 328 328 326
268 268 269 271 273 274 275 275 276 277 279 281 282 283 284 285 286 287 288 289 290 291 293 295 296 297 299 300 303 307 313 316 303 289 286 286 285 289 292 289 291 297 299 301 302 300 297 295 293 291 290 292 295 299 299 298 298 299 300 303 305 306 308 309 310 311 312 313 314 315 317 318 317 317 316 316 316 318 321 323 324 326 327 328 326
269 269 270 272 273 274 274 275 276 278 279 280 282 283 284 285 286 288 289 290 291 293 294 296 296 297 298 299 302 306 307 299 283 275 274 274 276 282 285 284 288 295 298 299 298 295 292 290 289 290 290 291 293 296 298 298 298 297 299 301 303 305 306 308 309 311 311 312 314 315 316 316 315 315 315 315 316 319 321 322 323 325 326 327 325
269 269 270 271 272 273 273 275 275 277 278 279 281 282 283 285 287 289 290 291 292 293 294 295 296 296 297 298 301 302 299 289 277 270 268 266 269 275 280 285 291 294 294 294 291 289 288 287 286 287 289 291 293 294 296 296 296 296 298 301 303 304 305 307 308 310 311 312 314 315 315 314 314 314 314 315 317 319 320 321 322 323 325 326 325
269 269 270 270 271 271 272 273 274 276 278 279 281 282 283 285 288 289 290 290 290 291 293 294 294 294 295 297 298 299 297 291 280 271 268 267 267 272 280 287 288 287 286 288 287 286 286 285 284 286 288 290 292 293 294 294 295 296 299 301 302 303 303 304 306 308 310 312 313 313 313 312 312 313 314 315 317 318 318 320 321 322 324 325 324
268 269 269 269 270 271 271 273 275 277 278 280 281 282 283 285 287 288 287 287 288 290 291 292 292 292 293 295 296 296 294 289 282 274 270 269 270 276 282 282 280 279 280 283 284 284 284 283 284 286 288 289 290 291 293 295 296 299 300 300 300 301 301 303 306 308 310 310 311 311 311 311 311 313 314 315 315 316 317 318 319 321 323 324 323
268 269 269 269 270 271 272 273 275 277 278 279 281 282 283 285 286 286 286 286 288 289 290 290 290 291 292 293 294 294 290 285 280 271 268 272 279 282 282 279 276 274 274 276 277 278 279 281 284 285 286 288 290 293 294 296 297 299 299 299 300 301 303 306 308 308 309 309 309 309 309 310 312 313 313 313 314 314 315 316 318 320 321 322 322
266 267 268 269 270 271 273 274 275 277 279 280 281 282 283 284 285 285 286 287 288 288 288 289 290 290 291 292 292 291 288 282 274 265 263 269 272 269 269 271 271 270 270 270 270 273 276 280 283 285 287 291 293 294 294 294 295 296 297 298 300 302 304 306 307 307 308 308 308 308 309 311 312 311 311 311 312 313 314 315 317 318 320 321 321
265 266 267 269 270 271 272 273 275 277 278 280 281 281 282 284 285 286 286 287 287 287 287 288 289 289 290 290 290 290 287 279 267 259 259 260 257 253 253 256 259 262 264 265 267 271 275 279 283 285 288 292 293 292 292 292 293 294 296 298 300 301 303 304 305 305 306 307 307 308 309 309 309 309 309 310 310 311 313 314 316 317 319 321 320
265 266 268 269 271 272 273 275 276 277 279 280 282 283 284 285 285 286 287 287 287 287 287 288 288 289 289 289 289 289 286 276 265 258 255 254 254 255 255 253 254 259 264 267 270 273 275 278 280 283 284 286 288 289 290 292 293 294 296 297 298 299 301 301 302 304 305 306 307 307 307 307 307 307 308 309 310 311 312 313 315 317 318 319 319
267 268 269 270 272 274 276 278 279 281 282 283 284 285 286 286 286 286 286 286 286 287 288 288 289 289 289 289 288 288 283 274 265 260 257 254 254 256 258 258 259 263 267 270 273 275 277 279 281 283 284 283 284 286 288 290 292 293 294 295 297 298 298 299 302 304 305 305 305 304 305 305 305 306 307 308 308 310 311 313 314 316 318 318 318
268 269 270 272 273 275 277 279 281 282 283 284 285 285 286 286 286 286 286 286 287 288 289 290 290 290 290 290 290 289 285 276 268 262 259 256 256 256 258 260 263 266 269 272 274 275 278 281 283 284 284 283 284 285 287 289 291 292 293 295 296 297 298 300 302 303 303 302 302 302 303 303 304 305 306 307 307 309 310 312 314 316 317 317 315
271 271 273 275 276 278 280 281 282 283 283 284 285 285 285 285 286 286 286 287 288 288 290 291 291 292 292 292 292 291 288 283 276 268 261 258 259 261 263 264 266 268 271 274 278 280 281 283 284 284 285 285 287 288 289 290 292 293 294 295 296 297 299 301 302 301 300 299 300 301 301 302 303 304 305 306 307 308 310 312 314 315 315 315 313
271 272 274 276 278 279 281 281 282 282 283 284 284 284 284 285 285 286 286 286 287 290 294 294 294 294 295 294 294 293 291 288 284 277 268 263 263 266 269 270 270 271 272 275 280 282 283 284 285 286 287 289 289 290 290 292 293 294 295 296 297 298 299 300 299 298 298 298 299 300 300 301 302 303 304 305 306 308 310 312 313 313 313 313 311
269 271 273 274 275 277 278 279 279 280 281 282 283 284 285 286 286 286 286 287 290 294 296 296 296 297 297 296 295 294 292 290 288 284 279 272 269 271 275 276 276 274 274 275 277 279 280 282 283 284 286 287 288 290 291 292 293 294 295 296 297 297 297 297 296 297 298 298 299 300 301 302 302 303 303 304 306 307 309 311 311 311 311 311 310
268 269 270 272 273 275 276 277 279 281 282 283 284 285 286 286 286 287 287 289 292 295 296 295 295 295 294 293 293 292 291 292 291 290 289 286 283 282 283 285 283 280 277 277 277 278 279 280 281 282 284 286 288 289 291 292 293 294 294 294 295 296 295 295 296 297 298 299 299 300 301 301 301 302 302 304 305 306 308 309 309 309 309 309 308
267 269 271 273 275 276 277 279 281 283 284 284 282 282 282 283 284 285 287 289 292 293 293 293 294 294 294 294 296 296 297 298 298 298 297 296 294 293 292 292 289 285 281 280 280 279 280 281 282 283 285 287 289 290 292 292 293 293 293 294 294 294 295 295 296 297 298 298 299 300 300 300 300 301 302 303 304 305 306 306 307 307 307 307 305
269 272 275 276 277 277 279 281 283 283 282 280 278 278 280 281 283 285 287 289 291 292 294 295 296 297 297 297 298 299 299 299 298 297 296 295 295 295 294 294 292 290 288 287 287 287 287 287 288 288 289 290 292 293 294 294 293 293 294 294 294 295 295 296 297 297 298 298 298 298 299 299 299 300 301 302 302 303 304 304 305 305 306 305 303
272 274 276 276 277 277 279 281 282 282 281 280 279 280 281 283 284 286 287 289 291 292 293 294 294 294 292 291 291 291 292 292 292 292 292 292 292 292 292 293 293 293 292 292 291 291 292 292 292 292 293 294 296 297 296 295 295 295 296 296 296 296 296 297 297 297 297 297 297 298 298 298 299 300 300 301 301 301 302 302 303 304 303 302 301
Height
10978 10977 10977 10977 10977 10977 10977 10977 10977 10977 10976 10975 10975 10974 10974 10973 10972 10972 10971 10971 10970 10970 10970 10969 10969 10968 10967 10966 10964 10963 10962 10961 10960 10958 10957 10955 10953 10952 10950 10948 10946 10944 10942 10941 10939 10938 10936 10934 10933 10931 10929 10927 10925 10924 10921 10919 10916 10913 10910 10907 10905 10904 10902 10900 10898 10895 10891 10886 10881 10877 10874 10871 10868 10866 10866 10868 10870 10872 10873 10873 10874 10874 10875 10876 10878
10979 10979 10978 10978 10977 10977 10977 10977 10977 10977 10976 10976 10975 10975 10974 10973 10972 10972 10971 10971 10970 10970 10969 10968 10968 10967 10966 10965 10964 10964 10962 10961 10960 10958 10957 10955 10953 10951 10949 10947 10945 10943 10941 10940 10938 10937 10935 10933 10931 10929 10927 10925 10924 10921 10919 10916 10913 10910 10907 10904 10902 10900 10899 10896 10894 10892 10890 10886 10881 10876 10872 10870 10867 10863 10861 10861 10862 10865 10867 10868 10869 10870 10870 10871 10872
10979 10979 10978 10978 10977 10976 10976 10976 10976 10976 10976 10975 10975 10975 10974 10973 10972 10971 10971 10971 10970 10970 10969 10968 10967 10966 10964 10964 10963 10962 10961 10960 10958 10957 10955 10954 10952 10950 10948 10946 10944 10942 10941 10939 10937 10935 10934 10931 10929 10927 10925 10923 10921 10919 10916 10913 10911 10908 10905 10903 10900 10897 10895 10892 10889 10887 10885 10883 10881 10877 10872 10868 10864 10861 10858 10856 10856 10857 10859 10861 10863 10863 10865 10866 10867
10978 10978 10977 10977 10976 10975 10975 10975 10975 10975 10975 10975 10975 10974 10973 10972 10971 10971 10970 10970 10970 10969 10968 10967 10966 10964 10963 10962 10961 10960 10959 10958 10956 10955 10954 10952 10950 10948 10947 10945 10943 10942 10939 10938 10936 10934 10932 10930 10927 10925 10923 10920 10918 10916 10914 10911 10909 10906 10903 10901 10898 10895 10892 10889 10885 10882 10879 10877 10875 10874 10871 10867 10863 10859 10855 10852 10851 10851 10852 10854 10856 10857 10858 10860 10861
10977 10977 10977 10976 10976 10975 10975 10975 10975 10975 10974 10974 10974 10974 10973 10972 10971 10970 10969 10969 10968 10968 10967 10966 10965 10963 10962 10960 10959 10958 10957 10956 10955 10953 10952 10950 10949 10947 10945 10943 10942 10940 10938 10936 10934 10932 10930 10928 10926 10923 10921 10918 10916 10914 10912 10909 10907 10904 10901 10899 10896 10894 10891 10888 10884 10880 10875 10872 10868 10866 10864 10863 10861 10859 10854 10849 10846 10845 10846 10847 10848 10850 10851 10853 10854
10976 10976 10976 10976 10976 10975 10975 10974 10974 10974 10974 10973 10973 10973 10972 10971 10970 10969 10968 10968 10967 10966 10965 10964 10963 10962 10960 10959 10958 10956 10955 10954 10952 10951 10950 10949 10947 10945 10944 10942 10940 10938 10936 10934 10933 10931 10929 10926 10924 10922 10920 10918 10915 10913 10910 10907 10905 10902 10900 10897 10894 10892 10889 10885 10882 10878 10874 10869 10865 10860 10857 10855 10854 10853 10853 10850 10845 10840 10839 10840 10841 10842 10844 10846 10847
10975 10975 10975 10975 10975 10974 10974 10973 10973 10973 10972 10972 10972 10971 10971 10970 10969 10968 10967 10967 10966 10965 10964 10962 10961 10960 10959 10957 10956 10954 10953 10951 10950 10948 10947 10946 10944 10943 10941 10939 10938 10936 10934 10932 10931 10929 10927 10925 10923 10921 10919 10916 10914 10911 10908 10905 10902 10899 10897 10895 10892 10889 10886 10882 10879 10875 10871 10868 10864 10859 10855 10851 10848 10845 10845 10845 10844 10839 10835 10832 10833 10834 10836 10838 10840
10974 10974 10974 10973 10973 10973 10972 10972 10971 10971 10970 10970 10970 10970 10969 10968 10968 10967 10966 10966 10965 10964 10963 10961 10960 10958 10957 10955 10954 10952 10951 10949 10947 10945 10944 10943 10942 10940 10939 10937 10935 10934 10932 10930 10929 10927 10925 10923 10920 10918 10915 10913 10910 10907 10904 10901 10898 10896 10893 10891 10889 10886 10883 10879 10876 10872 10869 10866 10863 10859 10855 10850 10845 10841 10837 10835 10835 10836 10833 10829 10826 10827 10828 10830 10832
10973 10972 10972 10972 10972 10971 10971 10970 10969 10969 10968 10968 10968 10967 10967 10967 10966 10965 10965 10964 10963 10962 10961 10960 10958 10956 10954 10953 10951 10950 10948 10946 10944 10943 10941 10940 10939 10938 10936 10934 10933 10931 10930 10928 10926 10924 10922 10920 10917 10914 10911 10908 10906 10903 10900 10898 10895 10893 10890 10887 10885 10882 10879 10877 10874 10870 10867 10863 10860 10857 10853 10849 10844 10840 10835 10830 10826 10826 10826 10825 10822 10820 10820 10821 10823
10971 10971 10971 10970 10970 10970 10969 10968 10968 10967 10966 10966 10966 10965 10965 10964 10964 10963 10962 10961 10961 10960 10959 10958 10956 10954 10952 10950 10948 10947 10945 10943 10942 10940 10939 10937 10936 10934 10933 10931 10929 10928 10926 10925 10923 10921 10918 10915 10913 10910 10908 10905 10903 10900 10898 10896 10893 10890 10887 10884 10882 10879 10876 10874 10871 10868 10864 10861 10858 10854 10851 10847 10843 10838 10833 10829 10823 10819 10817 10817 10816 10815 10814 10814 10815
10969 10970 10970 10969 10969 10968 10967 10967 10967 10966 10965 10964 10964 10963 10963 10962 10961 10960 10959 10959 10958 10957 10957 10956 10955 10953 10950 10948 10946 10944 10942 10941 10939 10938 10936 10934 10933 10931 10929 10927 10926 10924 10923 10921 10919 10916 10914 10911 10909 10907 10905 10903 10900 10898 10896 10893 10891 10888 10885 10882 10879 10876 10873 10871 10868 10865 10861 10858 10855 10852 10848 10845 10842 10837 10833 10827 10822 10816 10811 10809 10808 10807 10807 10807 10807
10967 10967 10968 10967 10966 10966 10965 10965 10965 10964 10964 10963 10962 10962 10961 10960 10959 10957 10956 10956 10955 10954 10954 10953 10952 10950 10948 10946 10945 10943 10941 10938 10936 10935 10933 10931 10929 10927 10925 10923 10922 10920 10918 10916 10915 10912 10910 10907 10906 10904 10902 10900 10898 10896 10893 10890 10888 10885 10882 10879 10876 10873 10870 10867 10864 10861 10857 10854 10851 10848 10845 10842 10839 10836 10831 10826 10821 10815 10810 10805 10802 10800 10799 10799 10800
10963 10963 10964 10964 10964 10963 10962 10962 10962 10961 10961 10960 10960 10959 10959 10957 10956 10955 10953 10952 10952 10951 10950 10949 10948 10946 10944 10942 10941 10940 10939 10937 10934 10932 10930 10928 10926 10924 10922 10920 10919 10917 10915 10913 10911 10909 10906 10904 10903 10901 10899 10897 10895 10892 10889 10886 10884 10881 10879 10876 10872 10869 10866 10863 10860 10856 10853 10850 10847 10844 10841 10839 10836 10833 10829 10824 10820 10814 10808 10803 10798 10795 10794 10792 10792
10961 10960 10959 10959 10960 10959 10959 10959 10958 10958 10958 10957 10957 10956 10956 10955 10953 10952 10950 10949 10948 10947 10946 10945 10944 10942 10940 10938 10936 10936 10935 10934 10932 10930 10928 10925 10923 10921 10919 10917 10916 10914 10912 10910 10908 10906 10903 10901 10900 10898 10896 10894 10891 10888 10885 10882 10879 10877 10875 10872 10868 10865 10862 10858 10854 10851 10848 10845 10842 10839 10837 10834 10831 10828 10824 10821 10817 10812 10806 10801 10796 10792 10789 10788 10787
10958 10957 10956 10955 10955 10955 10955 10955 10954 10954 10954 10953 10953 10953 10952 10951 10950 10948 10947 10946 10945 10944 10942 10941 10940 10938 10935 10933 10932 10931 10930 10929 10928 10927 10925 10923 10920 10918 10915 10913 10912 10910 10908 10906 10904 10902 10900 10898 10896 10894 10892 10889 10886 10883 10880 10877 10874 10871 10869 10866 10863 10860 10856 10852 10848 10845 10842 10840 10837 10835 10833 10830 10827 10824 10821 10817 10814 10810 10805 10800 10795 10790 10786 10784 10782
10954 10954 10953 10952 10951 10951 10951 10951 10950 10951 10951 10950 10950 10949 10948 10948 10946 10945 10944 10942 10941 10940 10938 10936 10935 10933 10931 10929 10928 10926 10925 10924 10923 10922 10921 10920 10918 10915 10913 10910 10908 10906 10904 10902 10900 10899 10896 10894 10892 10890 10887 10884 10881 10878 10875 10872 10868 10865 10863 10861 10858 10855 10852 10847 10843 10840 10837 10835 10833 10831 10829 10826 10824 10820 10817 10813 10809 10806 10803 10799 10795 10790 10785 10781 10778
10950 10950 10950 10949 10948 10947 10947 10946 10946 10946 10947 10947 10946 10945 10945 10944 10943 10942 10940 10939 10937 10936 10934 10932 10930 10929 10927 10925 10924 10922 10920 10918 10917 10916 10916 10915 10914 10912 10910 10907 10905 10903 10900 10899 10897 10895 10892 10889 10886 10883 10881 10878 10875 10872 10869 10866 10862 10859 10857 10855 10853 10850 10847 10843 10839 10836 10832 10829 10827 10826 10824 10821 10818 10815 10812 10808 10804 10800 10797 10795 10792 10789 10785 10781 10776
10946 10946 10946 10946 10946 10944 10943 10942 10942 10942 10942 10942 10942 10942 10941 10940 10939 10938 10936 10935 10933 10932 10930 10928 10926 10925 10923 10921 10919 10917 10914 10913 10911 10910 10910 10909 10908 10907 10905 10902 10900 10898 10896 10894 10892 10890 10886 10883 10880 10876 10874 10871 10868 10866 10863 10859 10856 10854 10852 10850 10847 10845 10842 10838 10834 10830 10827 10823 10821 10819 10816 10814 10811 10808 10805 10802 10799 10795 10792 10790 10788 10785 10782 10779 10776
10941 10941 10942 10943 10942 10941 10939 10938 10938 10938 10938 10938 10937 10937 10936 10936 10935 10934 10933 10931 10929 10928 10926 10924 10923 10921 10919 10917 10916 10913 10911 10908 10906 10905 10904 10903 10902 10900 10899 10896 10894 10892 10889 10887 10885 10882 10879 10876 10872 10869 10867 10864 10861 10858 10856 10853 10850 10847 10845 10843 10841 10838 10836 10832 10828 10824 10821 10817 10815 10813 10810 10807 10805 10802 10799 10797 10794 10791 10788 10785 10783 10780 10777 10775 10772
10936 10937 10938 10938 10938 10937 10936 10935 10934 10934 10934 10934 10933 10932 10932 10931 10931 10930 10929 10927 10926 10924 10922 10920 10919 10918 10917 10915 10913 10911 10909 10905 10902 10900 10899 10897 10895 10894 10891 10889 10887 10885 10881 10878 10875 10873 10871 10868 10865 10862 10859 10856 10853 10850 10848 10846 10843 10840 10838 10836 10834 10831 10829 10825 10821 10818 10814 10811 10808 10807 10804 10802 10799 10796 10793 10790 10787 10784 10782 10780 10778 10775 10772 10769 10766
10932 10933 10934 10933 10933 10932 10932 10931 10931 10931 10931 10930 10929 10928 10927 10927 10926 10925 10924 10923 10922 10920 10918 10916 10915 10914 10913 10911 10909 10907 10905 10902 10898 10896 10894 10891 10889 10887 10884 10882 10880 10878 10874 10871 10867 10865 10863 10861 10859 10855 10852 10850 10847 10844 10842 10839 10836 10833 10831 10829 10827 10825 10822 10819 10815 10812 10809 10805 10802 10800 10798 10795 10792 10790 10787 10784 10780 10777 10774 10772 10770 10768 10765 10763 10760
10928 10929 10929 10929 10928 10927 10927 10927 10927 10927 10927 10926 10925 10924 10923 10922 10921 10921 10920 10919 10917 10915 10914 10912 10911 10910 10908 10907 10905 10902 10900 10897 10894 10892 10889 10886 10882 10879 10877 10875 10873 10870 10867 10864 10861 10858 10856 10854 10852 10850 10847 10844 10841 10838 10835 10833 10829 10827 10825 10822 10820 10819 10817 10814 10810 10807 10803 10799 10796 10794 10791 10788 10785 10782 10779 10776 10773 10769 10767 10764 10762 10760 10757 10754 10752
10924 10924 10924 10923 10923 10922 10922 10922 10923 10923 10922 10921 10920 10919 10918 10917 10917 10916 10915 10914 10913 10912 10910 10909 10908 10906 10905 10903 10901 10897 10894 10891 10888 10886 10883 10880 10876 10873 10870 10868 10865 10864 10861 10859 10855 10852 10849 10848 10846 10844 10841 10838 10835 10832 10830 10826 10824 10821 10819 10817 10815 10813 10811 10808 10804 10801 10797 10793 10790 10787 10784 10781 10777 10773 10770 10767 10764 10761 10759 10756 10753 10751 10748 10744 10742
10920 10920 10919 10917 10917 10917 10917 10917 10917 10917 10916 10915 10914 10913 10913 10912 10912 10911 10911 10910 10910 10908 10907 10905 10904 10902 10901 10899 10896 10893 10889 10886 10883 10880 10877 10873 10869 10867 10864 10862 10860 10858 10856 10854 10850 10847 10844 10842 10840 10838 10835 10833 10830 10827 10824 10821 10818 10815 10813 10811 10809 10807 10805 10802 10798 10794 10790 10786 10783 10780 10777 10773 10768 10764 10760 10758 10756 10753 10750 10747 10744 10741 10738 10734 10731
10915 10916 10914 10911 10911 10911 10911 10912 10912 10911 10910 10909 10908 10908 10907 10907 10907 10906 10906 10905 10905 10903 10902 10901 10900 10899 10897 10895 10892 10888 10884 10880 10877 10873 10870 10866 10862 10860 10859 10857 10856 10853 10851 10848 10844 10841 10839 10837 10834 10832 10830 10827 10824 10821 10819 10816 10812 10810 10808 10806 10803 10801 10799 10796 10792 10788 10783 10779 10775 10771 10767 10764 10759 10755 10752 10750 10747 10744 10740 10736 10734 10731 10727 10724 10720
10909 10910 10909 10906 10906 10906 10906 10905 10905 10904 10904 10903 10903 10902 10902 10902 10901 10901 10900 10900 10899 10898 10896 10895 10894 10893 10892 10890 10888 10884 10880 10874 10870 10866 10863 10858 10854 10852 10852 10852 10850 10848 10845 10842 10838 10835 10833 10831 10829 10826 10824 10822 10819 10816 10813 10810 10807 10805 10802 10800 10797 10795 10792 10788 10784 10780 10775 10771 10767 10764 10759 10755 10752 10748 10745 10742 10739 10735 10730 10726 10723 10721 10717 10713 10709
10903 10904 10904 10902 10901 10901 10900 10899 10899 10899 10898 10898 10897 10897 10897 10896 10896 10895 10894 10893 10892 10891 10889 10887 10887 10887 10886 10885 10883 10881 10878 10871 10865 10861 10858 10854 10849 10846 10845 10845 10844 10841 10839 10836 10832 10829 10827 10825 10823 10821 10819 10816 10813 10810 10807 10804 10802 10799 10796 10794 10791 10788 10784 10780 10776 10772 10768 10764 10760 10756 10753 10749 10745 10742 10738 10735 10731 10726 10721 10715 10712 10709 10706 10702 10698
10898 10898 10899 10898 10895 10895 10893 10893 10893 10893 10893 10892 10892 10892 10892 10891 10890 10889 10888 10886 10886 10885 10883 10882 10882 10881 10881 10880 10878 10879 10878 10871 10864 10858 10854 10852 10848 10843 10841 10839 10837 10834 10832 10829 10826 10823 10820 10818 10817 10814 10812 10810 10807 10804 10802 10799 10797 10793 10790 10787 10783 10780 10775 10771 10768 10764 10760 10756 10752 10749 10746 10742 10738 10734 10730 10726 10722 10717 10712 10706 10701 10697 10693 10689 10686
10895 10894 10894 10893 10890 10889 10887 10886 10887 10888 10888 10886 10886 10886 10885 10884 10883 10882 10881 10880 10879 10878 10877 10877 10876 10876 10876 10874 10875 10878 10875 10868 10862 10855 10851 10849 10844 10838 10836 10834 10832 10829 10828 10825 10821 10817 10815 10813 10811 10808 10806 10804 10801 10799 10796 10793 10790 10786 10783 10779 10775 10771 10767 10763 10760 10756 10752 10748 10744 10741 10737 10733 10730 10726 10722 10717 10711 10707 10702 10697 10691 10685 10681 10677 10673
10891 10890 10890 10888 10885 10883 10882 10882 10883 10883 10882 10881 10880 10880 10879 10877 10877 10876 10876 10874 10873 10872 10871 10871 10870 10871 10871 10872 10876 10877 10871 10865 10861 10854 10848 10845 10838 10832 10830 10828 10826 10825 10823 10821 10816 10812 10810 10808 10805 10803 10800 10797 10795 10793 10790 10786 10782 10779 10775 10771 10766 10762 10759 10755 10752 10748 10745 10741 10737 10733 10728 10724 10720 10717 10713 10708 10702 10697 10693 10688 10682 10675 10670 10666 10662
10886 10886 10886 10884 10881 10879 10878 10878 10878 10877 10876 10876 10876 10875 10874 10872 10872 10872 10872 10871 10869 10867 10866 10865 10864 10864 10866 10868 10872 10871 10865 10862 10860 10853 10845 10840 10835 10830 10825 10821 10820 10820 10818 10815 10812 10807 10804 10802 10800 10797 10793 10790 10789 10786 10783 10779 10775 10772 10768 10763 10758 10754 10751 10748 10744 10741 10737 10733 10730 10725 10720 10715 10712 10708 10703 10699 10693 10687 10682 10678 10672 10666 10661 10656 10653
10881 10881 10880 10878 10877 10876 10875 10874 10873 10872 10871 10870 10871 10871 10869 10868 10867 10867 10867 10866 10864 10862 10861 10859 10858 10857 10858 10861 10863 10863 10860 10859 10857 10851 10844 10839 10835 10831 10823 10815 10813 10814 10813 10810 10806 10802 10799 10796 10794 10790 10787 10784 10783 10780 10777 10772 10767 10764 10760 10755 10750 10747 10743 10740 10736 10733 10729 10725 10721 10717 10713 10708 10704 10700 10696 10691 10685 10678 10672 10667 10661 10656 10651 10647 10643
10875 10875 10873 10872 10872 10872 10871 10869 10867 10866 10865 10865 10866 10865 10864 10862 10862 10861 10861 10859 10857 10856 10855 10853 10852 10850 10851 10853 10855 10855 10855 10855 10854 10849 10844 10838 10833 10830 10825 10815 10809 10808 10808 10805 10800 10796 10793 10790 10787 10784 10781 10778 10776 10774 10770 10764 10759 10756 10753 10749 10743 10739 10736 10732 10728 10725 10721 10717 10713 10709 10705 10700 10695 10692 10689 10684 10678 10671 10663 10657 10651 10646 10642 10637 10634
10869 10868 10866 10865 10866 10865 10864 10862 10861 10860 10860 10860 10859 10858 10857 10855 10854 10855 10854 10853 10851 10849 10848 10847 10845 10843 10844 10845 10847 10849 10851 10853 10852 10847 10841 10835 10830 10827 10824 10816 10809 10807 10805 10801 10796 10791 10788 10784 10780 10777 10774 10770 10768 10767 10763 10757 10752 10749 10746 10741 10736 10731 10728 10725 10721 10718 10714 10709 10706 10702 10696 10692 10687 10684 10681 10676 10670 10663 10655 10649 10643 10637 10633 10628 10625
10861 10861 10860 10859 10859 10858 10856 10855 10854 10854 10854 10854 10853 10852 10849 10847 10847 10847 10847 10846 10844 10842 10841 10840 10838 10836 10836 10837 10840 10843 10846 10847 10844 10839 10834 10829 10824 10821 10818 10812 10807 10805 10802 10797 10792 10787 10782 10778 10774 10771 10767 10763 10761 10760 10756 10751 10746 10743 10738 10734 10729 10725 10721 10717 10713 10710 10706 10702 10698 10693 10688 10684 10679 10675 10671 10667 10661 10654 10647 10642 10636 10630 10625 10620 10616
10854 10854 10853 10853 10852 10850 10849 10848 10848 10847 10847 10846 10845 10844 10842 10840 10840 10840 10839 10837 10836 10835 10834 10833 10831 10829 10829 10829 10832 10834 10836 10836 10832 10826 10822 10821 10818 10816 10813 10808 10804 10802 10798 10792 10787 10783 10777 10773 10769 10765 10761 10757 10754 10752 10748 10743 10739 10736 10732 10727 10723 10718 10714 10710 10706 10703 10698 10694 10689 10685 10680 10676 10671 10667 10662 10657 10651 10645 10639 10634 10629 10623 10618 10613 10608
10845 10846 10846 10845 10843 10843 10843 10842 10841 10840 10840 10839 10838 10837 10835 10834 10834 10833 10831 10829 10829 10828 10828 10826 10824 10823 10822 10822 10824 10825 10824 10824 10822 10816 10813 10813 10813 10811 10808 10805 10801 10797 10792 10786 10782 10777 10772 10767 10763 10759 10755 10751 10747 10743 10739 10734 10731 10728 10725 10720 10716 10712 10707 10704 10701 10696 10691 10686 10682 10677 10672 10667 10663 10658 10652 10647 10641 10636 10631 10627 10621 10616 10611 10606 10600
10837 10838 10838 10836 10835 10836 10836 10835 10834 10833 10833 10833 10831 10829 10828 10828 10828 10826 10823 10822 10822 10823 10821 10819 10817 10817 10816 10815 10816 10817 10815 10813 10812 10810 10808 10808 10808 10806 10803 10799 10795 10789 10784 10779 10775 10770 10765 10760 10756 10752 10748 10743 10738 10733 10729 10724 10721 10719 10716 10711 10707 10704 10701 10697 10694 10689 10684 10679 10675 10670 10665 10659 10654 10648 10643 10637 10632 10628 10623 10619 10614 10610 10605 10599 10593
10829 10830 10828 10827 10827 10828 10829 10828 10827 10827 10827 10826 10824 10822 10821 10821 10820 10818 10815 10814 10815 10815 10813 10810 10810 10809 10809 10808 10808 10808 10807 10805 10804 10804 10803 10804 10805 10803 10796 10790 10785 10780 10776 10771 10766 10761 10756 10752 10748 10744 10739 10734 10729 10724 10719 10715 10712 10709 10705 10702 10699 10695 10692 10689 10684 10680 10675 10670 10666 10662 10657 10651 10645 10639 10634 10629 10624 10619 10615 10611 10607 10602 10598 10593 10586
10821 10821 10820 10819 10819 10820 10821 10820 10820 10820 10820 10818 10817 10816 10815 10814 10811 10808 10806 10806 10807 10806 10804 10802 10802 10801 10800 10800 10799 10798 10799 10798 10797 10796 10797 10797 10797 10792 10785 10779 10774 10769 10765 10761 10756 10751 10748 10744 10741 10735 10730 10725 10720 10715 10710 10707 10704 10701 10697 10693 10690 10686 10682 10679 10674 10670 10666 10661 10657 10653 10648 10641 10636 10631 10625 10621 10616 10611 10607 10603 10598 10594 10591 10586 10579
10814 10814 10812 10811 10811 10812 10813 10813 10813 10814 10813 10811 10810 10808 10807 10805 10802 10799 10799 10798 10798 10797 10796 10794 10794 10793 10792 10791 10790 10789 10790 10790 10788 10787 10787 10785 10781 10774 10769 10765 10761 10757 10753 10750 10746 10743 10740 10736 10733 10728 10722 10717 10712 10707 10703 10700 10696 10693 10689 10686 10683 10678 10674 10670 10665 10661 10657 10652 10648 10643 10638 10633 10628 10622 10617 10612 10607 10602 10598 10594 10590 10586 10583 10578 10571
10807 10806 10804 10804 10803 10804 10804 10804 10805 10805 10804 10803 10801 10798 10798 10796 10793 10791 10790 10789 10788 10788 10787 10786 10786 10784 10783 10783 10782 10781 10781 10780 10778 10777 10775 10772 10767 10763 10759 10755 10750 10746 10744 10741 10738 10736 10732 10728 10724 10719 10714 10711 10707 10701 10697 10694 10690 10686 10683 10679 10675 10671 10666 10661 10657 10653 10649 10643 10638 10633 10628 10624 10619 10614 10608 10603 10598 10593 10588 10585 10581 10578 10574 10570 10564
10797 10795 10794 10794 10794 10794 10795 10795 10794 10794 10793 10792 10790 10788 10787 10786 10784 10782 10780 10779 10778 10778 10777 10776 10776 10775 10774 10774 10774 10773 10772 10770 10768 10767 10764 10761 10758 10755 10752 10747 10742 10738 10736 10733 10730 10728 10724 10719 10714 10707 10702 10701 10699 10696 10692 10689 10684 10680 10676 10671 10667 10662 10657 10653 10649 10645 10640 10634 10628 10623 10619 10614 10609 10604 10599 10594 10589 10584 10580 10576 10572 10569 10565 10561 10555
10786 10785 10784 10784 10785 10785 10785 10785 10784 10783 10782 10781 10779 10778 10776 10775 10774 10773 10771 10769 10768 10768 10767 10766 10766 10764 10763 10762 10762 10762 10762 10761 10760 10757 10753 10751 10749 10746 10743 10740 10735 10731 10728 10725 10721 10719 10715 10711 10706 10699 10693 10690 10690 10689 10686 10682 10677 10673 10668 10663 10659 10654 10649 10644 10640 10635 10630 10624 10619 10614 10610 10605 10600 10595 10590 10584 10580 10575 10571 10567 10563 10560 10556 10552 10547
10776 10775 10775 10775 10775 10776 10776 10775 10774 10772 10771 10770 10769 10767 10766 10765 10764 10763 10761 10760 10759 10759 10758 10757 10755 10754 10752 10751 10749 10749 10749 10750 10749 10747 10743 10742 10740 10737 10734 10731 10728 10725 10721 10716 10712 10709 10706 10702 10697 10692 10687 10684 10682 10680 10677 10673 10669 10665 10659 10654 10649 10644 10639 10635 10630 10626 10621 10615 10609 10604 10600 10595 10591 10586 10581 10575 10570 10566 10562 10558 10554 10551 10547 10543 10539
10765 10765 10766 10767 10767 10767 10767 10766 10764 10762 10761 10760 10759 10757 10755 10754 10754 10754 10753 10752 10751 10750 10749 10747 10745 10743 10741 10739 10737 10736 10735 10735 10736 10735 10734 10732 10731 10728 10724 10722 10719 10716 10713 10708 10704 10700 10697 10693 10689 10685 10681 10677 10673 10671 10668 10665 10660 10655 10649 10643 10638 10634 10629 10624 10620 10616 10611 10605 10599 10594 10590 10586 10581 10577 10572 10566 10561 10557 10553 10549 10546 10542 10539 10536 10531
10757 10757 10759 10760 10759 10759 10759 10757 10755 10754 10753 10751 10748 10746 10744 10744 10744 10745 10744 10743 10742 10741 10740 10737 10735 10733 10730 10727 10726 10725 10723 10723 10722 10722 10722 10722 10720 10718 10716 10712 10709 10706 10704 10700 10696 10692 10688 10685 10682 10678 10673 10669 10666 10663 10659 10655 10650 10644 10638 10632 10628 10623 10618 10613 10609 10605 10600 10594 10589 10584 10580 10576 10572 10567 10562 10557 10553 10549 10544 10541 10537 10534 10531 10528 10524
10749 10750 10752 10752 10752 10752 10752 10750 10747 10745 10743 10741 10738 10736 10734 10734 10736 10736 10735 10734 10733 10732 10731 10729 10727 10724 10721 10718 10716 10715 10713 10712 10710 10709 10709 10709 10707 10706 10705 10703 10700 10697 10695 10692 10688 10685 10682 10678 10674 10670 10666 10662 10658 10654 10650 10645 10640 10633 10626 10621 10617 10612 10606 10602 10598 10594 10589 10584 10579 10574 10570 10566 10562 10557 10552 10548 10544 10540 10536 10532 10529 10526 10524 10520 10516
10740 10742 10743 10744 10744 10743 10742 10741 10738 10735 10733 10731 10730 10728 10726 10727 10728 10727 10726 10725 10724 10723 10722 10720 10718 10715 10712 10709 10706 10704 10702 10701 10699 10697 10697 10696 10694 10692 10691 10690 10689 10688 10686 10683 10681 10678 10674 10671 10667 10662 10658 10653 10649 10645 10640 10634 10627 10620 10614 10610 10606 10600 10594 10590 10587 10583 10578 10573 10569 10565 10560 10556 10551 10547 10542 10538 10534 10531 10527 10524 10521 10518 10515 10512 10509
10731 10732 10733 10735 10735 10734 10732 10730 10728 10726 10724 10722 10721 10720 10719 10719 10720 10719 10717 10716 10715 10713 10712 10710 10707 10704 10702 10699 10697 10695 10693 10692 10691 10690 10688 10686 10685 10682 10680 10678 10677 10676 10675 10673 10670 10667 10664 10661 10656 10652 10647 10643 10639 10634 10627 10620 10613 10607 10603 10599 10594 10588 10584 10580 10576 10572 10568 10563 10559 10554 10550 10545 10541 10536 10532 10528 10524 10521 10518 10515 10512 10510 10507 10504 10502
10722 10723 10724 10725 10725 10723 10721 10720 10718 10717 10716 10714 10713 10712 10711 10712 10712 10711 10709 10707 10705 10703 10701 10700 10698 10696 10694 10693 10691 10690 10689 10687 10685 10683 10680 10678 10676 10674 10671 10669 10666 10664 10662 10660 10658 10655 10652 10648 10644 10639 10635 10631 10626 10620 10613 10606 10600 10595 10592 10589 10583 10578 10574 10570 10566 10562 10558 10553 10548 10544 10539 10535 10530 10526 10522 10518 10514 10511 10509 10506 10504 10501 10498 10496 10494